Tracking 29892 objects as of 21-Nov-2024
HD Live streaming from Space Station
objects crossing your sky now

STARLINK-3233

Track STARLINK-3233 now!
10-day predictions
STARLINK-3233 is classified as:


NORAD ID: 49746
Int'l Code: 2021-115Y
Perigee: 545.9 km
Apogee: 547.8 km
Inclination: 53.2 °
Period: 95.4 minutes
Semi major axis: 6917 km
RCS: Unknown
Launch date: December 2, 2021
Source: United States (US)
Launch site: AIR FORCE EASTERN TEST RANGE (AFETR)
Your satellite tracking list
Your tracking list is empty




NASA's NSSDC Master Catalog

Two Line Element Set (TLE):
1 49746U 21115Y   24325.43301164  .00000513  00000-0  50295-4 0  9992
2 49746  53.2163 118.1385 0001349  92.0190 268.0956 15.08843513163933
Source of the keplerian elements: AFSPC